Location: Sternwarte ZA, Rosenfeld-Brittheim
(48.2889°N, 8.6789°E)
Time: 11:58:06
(UTC+02:00)

ISS - Visible Passes

Search period start: 27 May 2017 00:00
Search period end: 06 June 2017 00:00
Orbit: 402 x 408 km, 51.6° (Epoch: 27 May)

Date Brightness Start Highest point End Pass type
(mag) Time Alt. Az. Time Alt. Az. Time Alt. Az.
27 May -2.7 00:58:24 10° WNW 01:01:37 45° N 01:04:47 10° ENE visible
27 May -4.0 02:34:59 10° WNW 02:38:18 85° SSW 02:41:35 10° ESE visible
27 May -2.3 04:12:07 10° W 04:14:25 18° SW 04:16:42 10° S visible
27 May -3.8 22:29:26 10° WSW 22:32:44 87° NNW 22:36:02 10° ENE visible
28 May -2.6 00:06:16 10° WNW 00:09:27 44° N 00:12:39 10° ENE visible
28 May -3.6 01:42:57 10° WNW 01:46:14 69° NNE 01:47:26 35° E visible
28 May -1.4 03:19:40 10° W 03:19:58 12° W 03:19:58 12° W visible
28 May -2.8 23:14:05 10° W 23:17:19 48° N 23:20:31 10° ENE visible
29 May -3.1 00:50:53 10° WNW 00:54:08 54° NNE 00:56:01 22° E visible
29 May -1.9 02:27:27 10° WNW 02:28:37 19° W 02:28:37 19° W visible
29 May -3.1 22:21:54 10° W 22:25:10 58° NNW 22:28:26 10° ENE visible
29 May -2.8 23:58:46 10° WNW 00:01:58 46° N 00:05:08 10° E visible
30 May -3.2 01:35:20 10° WNW 01:37:45 45° W 01:37:45 45° W visible
30 May -2.6 23:06:36 10° WNW 23:09:48 44° N 23:12:59 10° ENE visible
31 May -3.8 00:43:14 10° WNW 00:46:33 78° NNE 00:47:03 59° E visible
31 May -2.7 22:14:23 10° W 22:17:36 46° N 22:20:48 10° ENE visible
31 May -3.3 23:51:08 10° WNW 23:54:25 58° NNE 23:56:27 20° E visible
01 Jun -1.9 01:27:44 10° WNW 01:29:05 21° W 01:29:05 21° W visible
01 Jun -2.9 22:59:00 10° WNW 23:02:13 48° N 23:05:27 10° E visible
02 Jun -3.7 00:35:33 10° WNW 00:38:33 59° WSW 00:38:33 59° WSW visible
02 Jun -2.7 22:06:49 10° WNW 22:10:01 44° N 22:13:12 10° ENE visible
02 Jun -3.9 23:43:25 10° WNW 23:46:43 88° NNE 23:48:02 34° ESE visible
03 Jun -1.2 01:20:24 10° W 01:20:41 11° W 01:20:41 11° W visible
03 Jun -3.4 22:51:17 10° WNW 22:54:34 64° NNE 22:57:34 12° E visible
04 Jun -2.6 00:27:56 10° W 00:30:13 29° WSW 00:30:13 29° WSW visible
04 Jun -3.0 21:59:07 10° WNW 22:02:22 51° N 22:05:36 10° E visible
04 Jun -3.6 23:35:40 10° WNW 23:38:54 52° SSW 23:39:46 38° SSE visible
05 Jun -3.9 22:43:29 10° WNW 22:46:47 81° SSW 22:49:21 16° ESE visible
